Regional Weather Roundup
Issued by NWS

Home | Current Version | Previous Version | Text Only | Print | Product List | Glossary Off
Versions: 1 2 3 4 5 6 7 8 9 10 11 12 13 14 15 16 17 18 19 20 21 22 23 24 25 26 27 28 29 30 31 32 33 34 35 36 37 38 39 40 41 42 43 44 45 46 47 48 49 50

000
ASUS43 KLMK 260910
RWRKY
NATIONAL WEATHER SERVICE LOUISVILLE KY
400 AM EST WED NOV 26 2014

NOTE "FAIR" INDICATES FEW OR NO CLOUDS BELOW 12,000 FEET
WITH NO SIGNIFICANT WEATHER AND/OR OBSTRUCTIONS TO VISIBILITY.

KYZ001>023-026-027-061>063-070>075-261000-
WESTERN AND SOUTH CENTRAL KENTUCKY

CITY           SKY/WX    TMP DP  RH WIND       PRES   REMARKS
PADUCAH        CLEAR     24  21  88 SE3       30.15F FOG
HENDERSON      PTCLDY    28  25  86 NE5       30.16S WCI  23
OWENSBORO      CLEAR     28  25  89 MISG      30.16S
HOPKINSVILLE   CLEAR     28  28  99 CALM      30.13F
BOWLING GREEN  CLEAR     31  26  82 CALM      30.13F
GLASGOW        CLEAR     29  28  98 CALM      30.10F
$$

KYZ024-025-028>034-038-045-046-053-261000-
NORTH CENTRAL KENTUCKY

CITY           SKY/WX    TMP DP  RH WIND       PRES   REMARKS
LOUISVILLE/SDF CLEAR     28  25  88 N5        30.13F WCI  23
LOUISVILLE/LOU CLEAR     29  25  85 N3        30.14S
FORT KNOX      CLEAR     25  23  93 N3        30.10F
$$

KYZ035>037-039>044-047>052-055>060-089>105-261000-
NORTHEAST KENTUCKY

CITY           SKY/WX    TMP DP  RH WIND       PRES   REMARKS
LEXINGTON      MOCLDY    32  29  88 N7        30.08F WCI  26
COVINGTON      PTCLDY    30  24  78 E7        30.12S WCI  23
FRANKFORT      PTCLDY    29  26  89 N3        30.08F
$$

KYZ054-064>069-076>088-106>120-261000-
SOUTHEAST KENTUCKY

CITY           SKY/WX    TMP DP  RH WIND       PRES   REMARKS
JACKSON        CLOUDY    36  28  73 VRB3      30.01F
LONDON         CLOUDY    38  27  64 N5        30.03F WCI  34
SOMERSET       CLOUDY    36  28  75 N6        30.06F WCI  31
MIDDLESBORO    NOT AVBL
MONTICELLO     CLOUDY    37  30  76 CALM      30.08F
$$



USA.gov is the U.S. government's official web portal to all federal, state and local government web resources and services.